Probability
14 12 12 13 12 10 10 8 4 1 1 4 5 6 5 4 3 3 3 1 0 0 0 0 0 0 0 0 0 0 1 2 3 2 1 0 1 0
14 12 11 11 11 10 9 9 6 3 2 3 6 8 7 4 2 4 5 2 0 0 0 0 0 0 0 0 0 0 0 2 4 3 1 0 1 1
11 10 10 9 9 9 9 8 8 7 5 4 6 10 11 7 4 5 5 2 0 0 0 0 0 0 0 0 0 0 0 1 2 2 1 0 0 0
8 8 8 7 7 9 9 8 8 8 7 5 6 10 12 10 7 5 2 1 0 0 0 0 0 0 0 0 0 0 0 0 1 1 0 0 0 0
6 7 6 6 6 7 9 9 8 8 7 6 6 7 10 10 8 3 1 0 0 0 0 0 0 0 0 0 0 0 0 0 0 0 0 0 0 0
7 6 6 5 4 5 7 8 7 7 7 7 6 5 7 8 5 1 0 0 0 0 0 0 0 0 0 0 0 0 0 0 0 0 0 0 0 0
7 5 4 3 3 3 4 5 6 7 7 7 6 5 5 5 3 1 0 0 1 1 1 1 0 0 0 0 0 0 0 0 0 0 0 0 0 0
5 3 2 2 1 1 1 2 4 5 6 7 6 4 3 3 3 2 1 2 2 3 3 2 1 1 0 0 0 0 0 0 0 0 0 0 0 0
2 2 1 1 0 0 0 1 1 2 3 4 3 2 2 3 4 3 2 2 4 4 4 3 2 1 0 0 0 0 0 0 0 0 0 0 0 0
2 2 2 2 1 0 0 1 0 0 1 1 1 1 2 3 3 2 2 2 3 4 5 3 2 1 0 0 0 0 0 0 0 0 0 0 0 0
2 2 3 3 1 0 0 1 1 1 1 0 0 0 1 1 1 1 2 2 1 2 3 2 1 1 1 0 0 0 0 0 0 0 0 0 0 0
3 3 2 1 0 0 0 0 1 2 1 0 0 1 1 1 1 0 1 1 1 1 1 2 2 1 1 0 1 0 0 0 0 0 0 0 0 0
3 2 1 0 0 0 0 0 1 1 1 0 0 1 2 2 2 1 2 3 2 1 2 3 2 1 0 0 0 0 0 0 0 0 0 0 0 0
2 1 0 0 0 0 0 0 0 0 0 0 0 1 1 2 3 3 4 5 4 3 3 3 2 0 0 0 0 0 0 0 0 0 0 0 0 0
1 0 0 0 0 0 0 0 0 0 0 0 0 0 0 1 2 3 4 6 5 4 3 2 2 1 1 0 0 0 0 0 0 0 0 0 0 0
0 0 0 0 0 0 0 1 1 1 1 0 1 1 0 1 1 1 2 3 4 3 3 3 3 3 2 1 0 0 0 0 0 0 0 0 1 1
0 0 0 0 0 0 0 1 2 2 2 1 1 2 1 2 2 2 1 1 2 2 3 3 4 4 4 2 1 0 0 0 0 0 0 0 1 2
0 0 0 0 0 0 0 1 2 2 2 2 2 2 2 2 2 3 2 1 2 2 3 4 5 5 4 3 2 1 0 0 0 0 0 0 1 2
0 0 0 0 0 0 1 2 2 3 3 3 2 2 3 3 3 3 3 3 3 3 4 5 6 5 4 3 2 1 1 1 1 1 1 1 1 2
0 0 0 0 0 0 1 2 2 2 2 2 2 4 4 4 3 3 3 3 3 3 3 4 5 4 2 1 1 1 1 0 1 1 2 2 1 1
1 0 0 0 0 0 0 1 1 1 1 1 2 4 4 3 3 3 3 3 3 3 3 3 3 2 1 1 0 0 0 0 0 1 2 2 1 0
1 1 0 0 0 0 0 0 0 0 1 1 3 4 4 3 3 3 3 2 2 2 1 1 1 0 0 1 0 0 0 0 0 0 1 1 0 0
1 1 1 1 0 0 0 0 0 1 2 2 3 4 5 4 3 2 2 2 1 1 0 0 0 0 0 1 0 0 0 0 0 0 0 0 0 0
Wind_Speed
5 5 4 4 3 3 2 2 3 4 4 3 2 3 3 3 6 5 5 9 11 11 12 11 11 10 10 10 10 10 10 10 10 10 10 10 10 9
4 5 5 4 3 3 3 3 3 3 4 3 3 2 3 3 5 4 5 8 11 12 12 12 12 12 11 11 11 11 11 11 10 11 11 10 10 9
5 5 5 5 3 3 3 3 4 3 4 4 3 2 3 3 3 3 4 5 6 11 12 12 13 13 12 12 12 12 11 11 11 11 12 11 10 10
6 6 5 5 5 3 3 4 4 4 4 4 3 2 3 3 4 4 5 6 5 9 12 13 13 13 13 13 12 12 12 11 11 11 12 12 11 10
5 6 5 5 5 4 4 4 4 4 3 3 3 3 3 3 3 4 5 3 5 7 10 12 14 14 14 14 13 13 12 12 12 11 11 11 11 11
5 5 5 5 5 5 5 4 4 4 3 3 3 3 3 3 3 3 3 3 4 5 5 7 9 13 14 14 14 14 13 13 12 12 11 11 11 11
4 4 5 5 6 5 5 3 4 3 3 3 3 3 3 2 3 3 3 3 4 4 3 4 4 5 7 11 13 14 14 14 13 13 12 12 12 12
4 4 5 6 6 7 7 6 5 5 4 3 4 4 4 4 3 3 3 3 3 2 3 3 3 4 5 6 10 14 15 14 14 14 13 13 12 12
4 4 5 5 4 4 5 6 6 7 7 6 6 6 5 4 4 4 4 4 4 3 3 4 4 5 5 6 10 13 14 15 15 14 14 13 13 12
4 4 4 4 4 3 4 4 5 5 6 6 5 6 6 4 4 5 5 5 4 4 4 4 4 4 4 4 9 12 14 15 15 14 14 13 13 13
5 5 4 4 4 4 3 4 5 5 7 8 8 9 9 9 7 4 4 4 5 4 4 3 3 3 3 3 5 10 12 13 13 14 13 13 13 11
3 3 4 4 4 5 4 4 5 5 5 5 6 7 8 8 10 8 6 5 5 4 4 3 3 2 2 2 3 4 5 8 11 12 13 13 12 7
3 3 2 4 4 6 5 5 7 6 5 5 5 5 5 5 6 6 6 6 6 5 4 3 3 2 2 2 2 3 4 4 5 6 9 11 12 10
3 2 2 4 5 7 6 7 9 7 5 4 4 4 4 4 4 5 6 6 6 6 5 4 3 3 3 3 2 2 3 4 4 5 5 7 10 12
3 4 4 5 6 7 9 10 8 5 4 4 4 4 4 4 4 4 4 4 5 6 6 5 5 4 3 4 3 3 2 3 4 4 5 5 6 6
4 5 7 8 8 8 7 6 6 5 5 5 4 4 4 3 3 3 3 3 3 3 4 4 5 5 4 4 3 3 3 3 3 4 4 4 4 5
3 4 4 4 4 4 4 4 4 5 5 5 4 4 3 3 3 3 3 3 3 3 3 2 2 2 3 3 3 3 3 3 3 3 3 3 3 4
3 5 5 5 4 4 4 4 4 4 4 4 4 4 3 3 3 2 2 3 3 3 3 3 2 1 1 2 3 4 3 4 3 3 3 3 3 3
4 6 6 5 4 4 4 4 3 3 2 3 3 3 3 3 3 3 3 3 2 2 3 3 3 3 3 3 3 4 4 4 3 3 3 3 3 3
6 6 5 4 4 3 3 3 3 3 3 3 3 3 3 3 3 3 3 3 2 2 2 2 3 3 4 3 2 2 4 4 4 3 3 2 1 2
4 4 4 4 3 3 3 3 3 2 3 3 3 3 3 3 3 3 3 3 3 2 3 3 3 3 2 1 1 2 1 2 3 3 3 2 2 2
4 4 3 3 3 3 2 2 2 2 3 3 2 2 2 2 3 3 3 3 3 3 3 2 2 2 2 2 3 2 1 1 1 2 2 3 3 4
3 3 3 3 3 2 2 2 3 2 1 1 2 1 2 2 2 2 2 2 2 2 2 2 2 2 2 2 2 2 2 2 1 1 2 3 4 5
Wind_Direction
233 234 239 250 249 246 245 239 251 271 262 239 231 219 205 190 183 192 188 197 201 203 206 209 213 217 222 224 227 230 227 225 226 226 226 225 226 226
229 232 233 243 248 244 244 245 240 253 265 249 240 217 205 215 199 199 196 200 208 210 211 211 213 217 220 223 225 227 224 221 222 223 222 222 224 224
235 234 232 240 246 245 239 242 246 246 258 265 247 222 212 219 202 207 205 209 210 211 212 214 217 218 220 221 223 223 222 220 220 222 222 223 224 225
233 234 230 233 232 240 243 243 246 243 245 255 257 237 234 217 199 209 222 226 217 214 214 215 217 218 218 220 221 220 219 220 220 222 222 221 221 222
233 233 230 229 229 228 238 247 252 256 243 247 256 245 236 221 211 229 233 228 235 226 217 215 215 216 217 218 219 219 218 219 221 221 223 221 220 219
240 235 234 228 226 226 234 238 250 260 253 246 249 247 233 216 208 222 235 224 236 239 226 220 221 219 217 217 218 217 217 218 219 219 219 221 220 218
252 242 241 233 220 218 234 233 247 255 252 247 247 255 246 220 220 224 236 236 234 227 221 223 214 217 219 219 219 218 216 215 215 216 216 218 219 217
257 254 250 232 216 216 225 229 230 240 249 249 252 247 246 236 233 236 239 240 246 219 217 240 217 223 221 214 214 211 212 213 212 211 211 214 217 217
256 251 257 254 223 224 227 230 235 240 239 240 244 247 244 235 235 242 237 236 248 236 230 244 230 234 234 227 212 209 210 211 210 210 210 212 214 214
252 245 242 244 236 225 235 239 243 243 242 246 249 255 255 242 236 239 242 250 250 239 223 240 236 238 243 223 208 209 211 209 209 211 211 210 211 211
252 251 240 229 213 220 238 246 255 257 255 257 257 256 252 243 236 234 234 238 249 250 227 230 238 243 238 236 216 211 211 209 209 209 209 208 208 207
247 241 239 230 213 213 233 247 256 263 271 275 263 255 246 239 228 220 225 228 236 244 226 218 232 241 250 236 207 195 205 212 210 209 207 207 202 197
259 249 227 215 214 225 238 243 251 262 269 264 260 253 240 231 225 222 222 222 226 235 223 207 223 228 233 250 238 208 198 196 197 207 210 209 201 194
263 262 247 224 231 240 242 246 252 258 257 254 253 253 245 238 233 231 225 222 223 228 225 210 215 219 226 245 243 220 208 200 190 191 195 200 207 209
277 281 278 255 251 250 244 243 244 243 242 246 249 250 249 243 243 243 233 221 224 228 223 210 210 213 208 221 226 220 224 222 201 191 187 186 189 190
267 277 267 255 250 253 253 243 234 232 233 242 245 248 244 233 234 233 229 219 221 236 227 215 209 208 216 218 210 220 216 216 207 197 190 190 193 194
296 276 267 258 250 242 241 238 234 232 234 240 242 244 241 236 237 229 217 216 220 224 228 210 201 209 224 215 211 213 208 216 214 197 187 199 208 199
276 263 261 257 254 253 253 251 246 244 244 241 234 234 234 233 237 234 223 220 219 213 212 192 167 170 247 272 234 217 223 224 218 202 188 195 217 208
243 253 256 254 253 252 250 251 254 255 257 256 247 236 230 227 224 225 223 221 215 216 211 190 183 192 215 236 245 225 214 221 214 206 209 205 214 217
240 249 255 255 257 258 256 251 249 248 242 244 244 238 234 229 226 221 217 217 216 215 221 207 203 204 212 224 241 258 225 218 211 209 209 211 229 208
256 259 265 267 267 265 257 250 243 240 249 246 237 232 235 235 231 228 217 211 215 218 222 223 219 207 209 210 224 234 242 215 210 206 198 197 218 228
272 277 281 280 274 277 270 257 257 253 255 253 249 238 235 237 235 231 219 211 217 219 222 210 184 192 208 213 223 217 219 227 242 245 260 232 207 208
281 291 296 292 280 280 286 289 288 279 266 267 274 264 258 254 245 235 227 221 221 224 218 205 205 211 216 218 218 206 203 209 217 225 273 272 221 216